�������l�o���
Date,Time,MP-1(��Sv/h),MP-2(��Sv/h),MP-3(��Sv/h),MP-4(��Sv/h),MP-5(��Sv/h),MP-6(��Sv/h),MP-7(��Sv/h),MP-8(��Sv/h),����,����(m/s),���J
2021/10/10,00:00,0.583,0.863,0.554,1.055,0.748,0.356,0.619,0.580,��쓌,0.6,��
2021/10/10,00:10,0.582,0.860,0.551,1.056,0.744,0.353,0.618,0.580,-,CALM,��
2021/10/10,00:20,0.582,0.863,0.552,1.055,0.746,0.354,0.617,0.580,��,0.8,��
2021/10/10,00:30,0.582,0.864,0.552,1.053,0.746,0.353,0.617,0.580,-,CALM,��
2021/10/10,00:40,0.580,0.862,0.552,1.055,0.745,0.353,0.617,0.580,���쓌,0.8,��
2021/10/10,00:50,0.582,0.861,0.551,1.056,0.745,0.354,0.617,0.581,-,CALM,��
2021/10/10,01:00,0.581,0.864,0.552,1.055,0.745,0.355,0.617,0.582,�쐼,0.6,��
2021/10/10,01:10,0.583,0.862,0.553,1.056,0.745,0.354,0.620,0.582,��,0.9,��
2021/10/10,01:20,0.584,0.863,0.550,1.055,0.745,0.353,0.618,0.581,��쐼,1.1,��
2021/10/10,01:30,0.584,0.863,0.551,1.055,0.745,0.354,0.617,0.581,��,1.4,��
2021/10/10,01:40,0.583,0.861,0.551,1.055,0.743,0.355,0.618,0.582,��,1.5,��
2021/10/10,01:50,0.582,0.862,0.552,1.055,0.744,0.355,0.617,0.582,�쐼,1.9,��
2021/10/10,02:00,0.582,0.865,0.551,1.056,0.745,0.354,0.618,0.581,��쐼,1.9,��
2021/10/10,02:10,0.581,0.863,0.552,1.055,0.744,0.352,0.618,0.581,��쐼,1.7,��
2021/10/10,02:20,0.583,0.864,0.551,1.055,0.745,0.354,0.617,0.579,��쐼,1.5,��
2021/10/10,02:30,0.583,0.863,0.550,1.056,0.745,0.355,0.620,0.581,�쐼,1.2,��
2021/10/10,02:40,0.584,0.864,0.551,1.055,0.746,0.354,0.618,0.583,��쐼,1.1,��
2021/10/10,02:50,0.583,0.862,0.551,1.055,0.745,0.354,0.618,0.581,�쐼,1.2,��
2021/10/10,03:00,0.581,0.863,0.553,1.054,0.746,0.355,0.615,0.581,�쐼,1.2,��
2021/10/10,03:10,0.584,0.862,0.553,1.055,0.745,0.355,0.617,0.581,�쐼,1.5,��
2021/10/10,03:20,0.584,0.864,0.552,1.054,0.746,0.354,0.616,0.583,�쐼,1.5,��
2021/10/10,03:30,0.582,0.864,0.552,1.057,0.745,0.355,0.616,0.582,�쐼,1.5,��
2021/10/10,03:40,0.582,0.864,0.552,1.054,0.743,0.354,0.618,0.582,�쐼,1.7,��
2021/10/10,03:50,0.583,0.863,0.551,1.055,0.746,0.355,0.618,0.581,�쐼,1.5,�L
2021/10/10,04:00,0.582,0.863,0.554,1.066,0.747,0.355,0.618,0.581,�쐼,1.2,�L
2021/10/10,04:10,0.582,0.864,0.552,1.057,0.746,0.355,0.614,0.581,���쐼,1.7,�L
2021/10/10,04:20,0.583,0.865,0.554,1.058,0.747,0.356,0.618,0.582,��,2.0,�L
2021/10/10,04:30,0.583,0.866,0.553,1.055,0.746,0.355,0.619,0.582,���쐼,2.0,�L
2021/10/10,04:40,0.584,0.864,0.553,1.056,0.746,0.354,0.618,0.581,���쐼,2.6,�L
2021/10/10,04:50,0.584,0.864,0.552,1.056,0.747,0.355,0.618,0.581,���쐼,2.6,�L
2021/10/10,05:00,0.583,0.863,0.551,1.055,0.745,0.356,0.619,0.581,���쐼,2.0,��
2021/10/10,05:10,0.584,0.861,0.553,1.058,0.745,0.356,0.617,0.580,��,1.2,�L
2021/10/10,05:20,0.584,0.862,0.552,1.056,0.746,0.355,0.616,0.581,���쐼,1.4,�L
2021/10/10,05:30,0.584,0.864,0.552,1.056,0.746,0.352,0.617,0.582,���쐼,1.2,��
2021/10/10,05:40,0.582,0.864,0.553,1.057,0.745,0.355,0.617,0.581,���쐼,1.2,��
2021/10/10,05:50,0.582,0.864,0.552,1.057,0.745,0.354,0.619,0.580,���쐼,1.5,��
2021/10/10,06:00,0.583,0.863,0.552,1.056,0.746,0.355,0.619,0.582,���쐼,1.4,��
2021/10/10,06:10,0.582,0.862,0.552,1.055,0.746,0.355,0.617,0.581,��,1.2,��
2021/10/10,06:20,0.582,0.864,0.554,1.056,0.745,0.355,0.618,0.583,��,1.2,��
2021/10/10,06:30,0.582,0.864,0.553,1.055,0.744,0.353,0.618,0.582,��,0.9,��
2021/10/10,06:40,0.584,0.862,0.553,1.056,0.744,0.355,0.618,0.581,��,0.9,��
2021/10/10,06:50,0.584,0.865,0.553,1.056,0.744,0.355,0.618,0.582,���k��,0.9,��
2021/10/10,07:00,0.583,0.864,0.554,1.058,0.745,0.354,0.618,0.581,��,0.8,��
2021/10/10,07:10,0.583,0.866,0.554,1.058,0.745,0.354,0.616,0.582,��,0.8,��
2021/10/10,07:20,0.584,0.864,0.552,1.058,0.746,0.354,0.617,0.583,-,CALM,��
2021/10/10,07:30,0.583,0.864,0.554,1.055,0.746,0.355,0.616,0.583,-,CALM,��
2021/10/10,07:40,0.584,0.866,0.555,1.056,0.747,0.353,0.617,0.583,�k��,0.8,��
2021/10/10,07:50,0.583,0.864,0.553,1.058,0.745,0.355,0.615,0.582,���k��,2.0,��
2021/10/10,08:00,0.584,0.866,0.553,1.056,0.747,0.354,0.618,0.581,���k��,1.4,�L
2021/10/10,08:10,0.583,0.865,0.552,1.056,0.744,0.355,0.617,0.580,���k��,1.1,�L
2021/10/10,08:20,0.584,0.865,0.554,1.059,0.746,0.355,0.616,0.581,���k��,0.9,�L
2021/10/10,08:30,0.582,0.864,0.553,1.059,0.744,0.355,0.617,0.581,-,CALM,��
2021/10/10,08:40,0.584,0.861,0.553,1.056,0.744,0.354,0.617,0.580,��,0.6,��
2021/10/10,08:50,0.583,0.862,0.552,1.057,0.744,0.354,0.616,0.582,�k��,1.2,��
2021/10/10,09:00,0.583,0.863,0.554,1.056,0.746,0.354,0.618,0.580,�k,0.9,��
2021/10/10,09:10,0.582,0.860,0.554,1.056,0.745,0.352,0.617,0.579,�k��,0.9,��
2021/10/10,09:20,0.581,0.862,0.551,1.059,0.744,0.354,0.618,0.579,�k,0.8,��
2021/10/10,09:30,0.582,0.864,0.551,1.059,0.746,0.353,0.617,0.581,-,CALM,��
2021/10/10,09:40,0.582,0.864,0.552,1.057,0.743,0.354,0.617,0.579,��,0.8,��
2021/10/10,09:50,0.583,0.864,0.551,1.059,0.745,0.355,0.619,0.580,��쓌,1.1,��
2021/10/10,10:00,0.582,0.864,0.554,1.056,0.747,0.353,0.619,0.577,�쓌,1.2,��
2021/10/10,10:10,0.584,0.864,0.553,1.058,0.746,0.355,0.618,0.580,�쓌,1.7,��
2021/10/10,10:20,0.583,0.864,0.552,1.059,0.745,0.356,0.617,0.579,�쓌,1.2,��
2021/10/10,10:30,0.584,0.865,0.553,1.056,0.748,0.354,0.618,0.581,���쓌,1.7,��
2021/10/10,10:40,0.584,0.867,0.553,1.057,0.747,0.354,0.619,0.581,���쓌,2.0,��
2021/10/10,10:50,0.585,0.867,0.555,1.057,0.748,0.354,0.618,0.580,���쓌,2.5,��
2021/10/10,11:00,0.584,0.867,0.555,1.058,0.748,0.355,0.619,0.580,�쓌,3.3,��
2021/10/10,11:10,0.586,0.866,0.555,1.060,0.750,0.354,0.619,0.581,�쓌,3.3,��
2021/10/10,11:20,0.586,0.870,0.554,1.057,0.750,0.355,0.617,0.580,�쓌,3.3,��
2021/10/10,11:30,0.585,0.868,0.554,1.060,0.750,0.356,0.619,0.582,�쓌,3.6,��
2021/10/10,11:40,0.586,0.870,0.554,1.060,0.751,0.356,0.619,0.581,�쓌,3.5,��
2021/10/10,11:50,0.585,0.870,0.555,1.059,0.751,0.355,0.620,0.581,�쓌,4.2,��
2021/10/10,12:00,0.584,0.870,0.554,1.061,0.753,0.355,0.619,0.581,�쓌,4.9,��
2021/10/10,12:10,0.587,0.870,0.556,1.059,0.752,0.355,0.618,0.581,��쓌,4.7,��
2021/10/10,12:20,0.587,0.871,0.556,1.060,0.753,0.354,0.620,0.580,��쓌,5.2,��
2021/10/10,12:30,0.587,0.870,0.555,1.061,0.752,0.356,0.618,0.581,��쓌,5.5,��
2021/10/10,12:40,0.586,0.872,0.557,1.060,0.753,0.354,0.620,0.582,��쓌,6.2,��
2021/10/10,12:50,0.588,0.872,0.559,1.060,0.753,0.354,0.621,0.580,��쓌,6.1,��
2021/10/10,13:00,0.588,0.873,0.556,1.060,0.753,0.356,0.621,0.582,��쓌,6.7,��
2021/10/10,13:10,0.587,0.871,0.557,1.059,0.755,0.355,0.621,0.581,��쓌,7.3,��
2021/10/10,13:20,0.587,0.873,0.558,1.061,0.754,0.355,0.620,0.583,��쓌,6.3,��
2021/10/10,13:30,0.587,0.871,0.558,1.061,0.755,0.356,0.621,0.582,��,7.4,��
2021/10/10,13:40,0.585,0.873,0.557,1.062,0.754,0.356,0.621,0.581,��쓌,8.2,��
2021/10/10,13:50,0.588,0.874,0.557,1.061,0.752,0.355,0.622,0.580,��쓌,8.4,��
2021/10/10,14:00,0.589,0.874,0.557,1.061,0.753,0.356,0.621,0.582,��쓌,8.4,��
2021/10/10,14:10,0.588,0.872,0.558,1.059,0.756,0.357,0.621,0.581,��,9.2,��
2021/10/10,14:20,0.587,0.872,0.557,1.062,0.754,0.357,0.621,0.582,��,7.3,��
2021/10/10,14:30,0.590,0.874,0.557,1.061,0.754,0.356,0.623,0.582,��,6.1,��
2021/10/10,14:40,0.589,0.875,0.560,1.063,0.754,0.358,0.622,0.582,��쓌,7.9,��
2021/10/10,14:50,0.588,0.873,0.559,1.062,0.754,0.357,0.622,0.582,��,8.9,��
2021/10/10,15:00,0.587,0.875,0.557,1.062,0.754,0.357,0.623,0.581,��쓌,9.5,��
2021/10/10,15:10,0.589,0.873,0.556,1.064,0.753,0.357,0.622,0.581,��,9.5,��
2021/10/10,15:20,0.588,0.873,0.558,1.064,0.756,0.358,0.623,0.581,��,8.0,��
2021/10/10,15:30,0.589,0.872,0.560,1.060,0.756,0.359,0.622,0.580,��쓌,7.9,��
2021/10/10,15:40,0.588,0.874,0.557,1.062,0.755,0.357,0.623,0.581,��,7.8,��
2021/10/10,15:50,0.588,0.873,0.558,1.063,0.753,0.358,0.622,0.582,��,8.6,��
2021/10/10,16:00,0.588,0.874,0.559,1.064,0.753,0.358,0.622,0.581,��,9.2,��
2021/10/10,16:10,0.588,0.873,0.559,1.062,0.754,0.359,0.622,0.582,��,8.9,��
2021/10/10,16:20,0.588,0.873,0.559,1.060,0.757,0.359,0.622,0.581,��,10.2,��
2021/10/10,16:30,0.587,0.872,0.558,1.063,0.756,0.360,0.623,0.580,��,9.2,��
2021/10/10,16:40,0.587,0.873,0.559,1.063,0.754,0.360,0.623,0.582,��,8.5,��
2021/10/10,16:50,0.588,0.873,0.558,1.063,0.755,0.360,0.623,0.582,��,9.2,��
2021/10/10,17:00,0.589,0.875,0.558,1.062,0.754,0.358,0.622,0.582,��,9.8,��
2021/10/10,17:10,0.589,0.877,0.557,1.063,0.754,0.360,0.623,0.583,��,8.6,��
2021/10/10,17:20,0.588,0.876,0.557,1.061,0.755,0.360,0.622,0.583,��,9.0,��
2021/10/10,17:30,0.588,0.873,0.557,1.063,0.756,0.359,0.624,0.584,��,7.9,��
2021/10/10,17:40,0.588,0.877,0.559,1.065,0.753,0.359,0.625,0.583,��,7.7,��
2021/10/10,17:50,0.587,0.873,0.559,1.064,0.756,0.359,0.625,0.584,��,8.1,��
2021/10/10,18:00,0.588,0.875,0.560,1.063,0.757,0.360,0.624,0.583,��,8.4,��
2021/10/10,18:10,0.587,0.874,0.560,1.063,0.757,0.360,0.624,0.583,��쐼,8.0,��
2021/10/10,18:20,0.588,0.875,0.562,1.064,0.758,0.359,0.624,0.584,��,9.4,��
2021/10/10,18:30,0.587,0.878,0.562,1.065,0.757,0.359,0.625,0.584,��,8.6,��
2021/10/10,18:40,0.590,0.877,0.563,1.062,0.758,0.359,0.626,0.584,��,9.2,��
2021/10/10,18:50,0.588,0.877,0.560,1.062,0.759,0.359,0.623,0.583,��,9.6,��
2021/10/10,19:00,0.588,0.877,0.561,1.064,0.758,0.359,0.623,0.584,��쐼,7.8,��
2021/10/10,19:10,0.589,0.879,0.561,1.062,0.758,0.359,0.624,0.584,��,8.6,��
2021/10/10,19:20,0.588,0.878,0.562,1.065,0.759,0.358,0.623,0.583,��쐼,8.3,��
2021/10/10,19:30,0.589,0.877,0.561,1.063,0.756,0.358,0.623,0.584,��,9.2,��
2021/10/10,19:40,0.587,0.877,0.560,1.064,0.757,0.357,0.625,0.583,��,9.5,��
2021/10/10,19:50,0.587,0.875,0.562,1.065,0.757,0.358,0.624,0.584,��,9.9,��
2021/10/10,20:00,0.587,0.880,0.562,1.064,0.756,0.361,0.624,0.583,��,8.9,��
2021/10/10,20:10,0.589,0.878,0.560,1.064,0.758,0.357,0.625,0.584,��,8.9,��
2021/10/10,20:20,0.588,0.878,0.561,1.062,0.758,0.357,0.625,0.585,��쐼,8.2,��
2021/10/10,20:30,0.589,0.877,0.561,1.064,0.758,0.359,0.625,0.584,��,8.5,��
2021/10/10,20:40,0.588,0.877,0.561,1.064,0.757,0.358,0.625,0.585,��,8.7,��
2021/10/10,20:50,0.589,0.877,0.561,1.066,0.757,0.357,0.623,0.583,��,7.4,��
2021/10/10,21:00,0.589,0.879,0.561,1.064,0.758,0.358,0.624,0.583,��,7.9,��
2021/10/10,21:10,0.590,0.876,0.561,1.065,0.757,0.359,0.625,0.581,��,6.8,��
2021/10/10,21:20,0.588,0.877,0.562,1.062,0.756,0.357,0.624,0.583,��,6.3,��
2021/10/10,21:30,0.587,0.881,0.561,1.065,0.756,0.358,0.624,0.585,��,5.5,��
2021/10/10,21:40,0.588,0.878,0.559,1.065,0.756,0.358,0.624,0.584,��,6.3,��
2021/10/10,21:50,0.588,0.877,0.561,1.062,0.757,0.358,0.624,0.583,��,6.8,��
2021/10/10,22:00,0.588,0.878,0.562,1.064,0.757,0.359,0.623,0.585,��,6.4,��
2021/10/10,22:10,0.589,0.878,0.560,1.063,0.759,0.358,0.624,0.584,��쐼,6.2,��
2021/10/10,22:20,0.589,0.878,0.559,1.065,0.757,0.357,0.624,0.584,��,7.1,��
2021/10/10,22:30,0.589,0.878,0.561,1.064,0.759,0.358,0.625,0.584,��쐼,8.7,��
2021/10/10,22:40,0.590,0.877,0.561,1.065,0.757,0.358,0.625,0.584,��쐼,7.4,��
2021/10/10,22:50,0.591,0.879,0.562,1.064,0.759,0.358,0.623,0.584,��,7.9,��
2021/10/10,23:00,0.590,0.877,0.561,1.062,0.758,0.358,0.624,0.584,��쐼,8.0,��
2021/10/10,23:10,0.589,0.880,0.562,1.066,0.757,0.357,0.625,0.584,��,8.6,��
2021/10/10,23:20,0.590,0.879,0.560,1.065,0.759,0.357,0.625,0.584,��쐼,7.0,��
2021/10/10,23:30,0.589,0.877,0.561,1.065,0.757,0.358,0.625,0.584,��쐼,7.3,��
2021/10/10,23:40,0.590,0.878,0.561,1.064,0.757,0.359,0.624,0.584,��쐼,7.5,��
2021/10/10,23:50,0.590,0.878,0.561,1.065,0.758,0.359,0.625,0.583,��쐼,8.1,��
